TimeEST,TemperatureF,Dew PointF,Humidity,Sea Level PressureIn,VisibilityMPH,Wind Direction,Wind SpeedMPH,Gust SpeedMPH,PrecipitationIn,Events,Conditions,WindDirDegrees,DateUTC
12:52 AM,32.0,15.1,50,29.86,10.0,NW,17.3,27.6,N/A,,Scattered Clouds,320,2013-02-17 05:52:00
1:52 AM,30.9,15.1,52,29.86,10.0,NNW,17.3,23.0,N/A,,Partly Cloudy,330,2013-02-17 06:52:00
2:52 AM,30.0,12.9,49,29.86,10.0,NNW,17.3,28.8,N/A,,Clear,330,2013-02-17 07:52:00
3:52 AM,28.9,14.0,54,29.86,10.0,NW,11.5,-,N/A,,Partly Cloudy,310,2013-02-17 08:52:00
4:52 AM,28.9,12.0,49,29.88,10.0,NW,11.5,23.0,N/A,,Clear,320,2013-02-17 09:52:00
5:52 AM,28.0,12.0,51,29.89,10.0,NW,8.1,-,N/A,,Clear,310,2013-02-17 10:52:00
6:52 AM,27.0,12.0,53,29.90,10.0,WNW,10.4,16.1,N/A,,Scattered Clouds,300,2013-02-17 11:52:00
7:52 AM,28.9,12.0,49,29.92,10.0,WNW,10.4,19.6,N/A,,Scattered Clouds,290,2013-02-17 12:52:00
8:52 AM,30.0,12.0,47,29.94,10.0,WNW,19.6,27.6,N/A,,Scattered Clouds,290,2013-02-17 13:52:00
9:52 AM,30.9,9.0,40,29.96,10.0,NNW,20.7,26.5,N/A,,Mostly Cloudy,340,2013-02-17 14:52:00
10:52 AM,32.0,8.1,37,29.98,10.0,NW,24.2,33.4,N/A,,Mostly Cloudy,320,2013-02-17 15:52:00
11:52 AM,30.9,10.9,43,29.99,10.0,WNW,18.4,29.9,N/A,,Mostly Cloudy,300,2013-02-17 16:52:00
12:52 PM,33.1,8.1,35,29.99,10.0,West,20.7,31.1,N/A,,Mostly Cloudy,270,2013-02-17 17:52:00
1:52 PM,34.0,5.0,30,29.99,10.0,WNW,23.0,35.7,N/A,,Mostly Cloudy,300,2013-02-17 18:52:00
2:52 PM,32.0,5.0,32,30.00,10.0,WNW,18.4,29.9,N/A,,Mostly Cloudy,300,2013-02-17 19:52:00
3:52 PM,32.0,3.9,31,30.02,10.0,WNW,17.3,35.7,N/A,,Mostly Cloudy,300,2013-02-17 20:52:00
4:52 PM,30.9,1.9,29,30.04,10.0,WNW,23.0,36.8,N/A,,Mostly Cloudy,290,2013-02-17 21:52:00
5:52 PM,28.4,1.4,31,30.08,10.0,WNW,20.7,33.4,N/A,,Mostly Cloudy,300,2013-02-17 22:52:00
6:52 PM,28.0,1.9,33,30.11,10.0,WNW,12.7,25.3,N/A,,Partly Cloudy,290,2013-02-17 23:52:00
7:52 PM,28.0,3.0,34,30.14,10.0,WNW,20.7,28.8,N/A,,Partly Cloudy,290,2013-02-18 00:52:00
8:52 PM,27.0,6.1,41,30.17,10.0,WNW,13.8,31.1,N/A,,Partly Cloudy,300,2013-02-18 01:52:00
9:52 PM,27.0,6.1,41,30.20,10.0,WNW,19.6,28.8,N/A,,Partly Cloudy,300,2013-02-18 02:52:00
10:52 PM,26.1,6.1,43,30.21,10.0,WNW,11.5,17.3,N/A,,Partly Cloudy,300,2013-02-18 03:52:00